Snowfall_Accumulation
0.0 0.0 0.0 0.0 0.0 0.0 0.0 0.0 0.0 0.0 0.0 0.0 0.0 0.0 0.0 0.0 0.0 0.0 0.0 0.0 0.0 0.0 0.0 0.0 0.0 0.0 0.0 0.0 0.0 0.0 0.0 0.0 0.0 0.0 0.0 0.0 0.0 0.0 0.0 0.0 0.0 0.0 0.0 0.0
0.0 0.0 0.0 0.0 0.0 0.0 0.0 0.0 0.0 0.0 0.0 0.0 0.0 0.0 0.0 0.0 0.0 0.0 0.0 0.0 0.0 0.0 0.0 0.0 0.0 0.0 0.0 0.0 0.0 0.0 0.0 0.0 0.0 0.0 0.0 0.0 0.0 0.0 0.0 0.0 0.0 0.0 0.0 0.0
0.0 0.0 0.0 0.0 0.0 0.0 0.0 0.0 0.0 0.0 0.0 0.0 0.0 0.0 0.0 0.0 0.0 0.0 0.0 0.0 0.0 0.0 0.0 0.0 0.0 0.0 0.0 0.0 0.0 0.0 0.0 0.0 0.0 0.0 0.0 0.0 0.0 0.0 0.0 0.0 0.0 0.0 0.0 0.0
0.0 0.0 0.0 0.0 0.0 0.0 0.0 0.0 0.0 0.0 0.0 0.0 0.0 0.0 0.0 0.0 0.0 0.0 0.0 0.0 0.0 0.0 0.0 0.0 0.0 0.0 0.0 0.0 0.0 0.0 0.0 0.0 0.0 0.0 0.0 0.0 0.0 0.0 0.0 0.0 0.0 0.0 0.0 0.0
0.0 0.0 0.0 0.0 0.0 0.0 0.0 0.0 0.0 0.0 0.0 0.0 0.0 0.0 0.0 0.0 0.0 0.0 0.0 0.0 0.0 0.0 0.0 0.0 0.0 0.0 0.0 0.0 0.0 0.0 0.0 0.0 0.0 0.0 0.0 0.0 0.0 0.0 0.0 0.0 0.0 0.0 0.0 0.0
0.0 0.0 0.0 0.0 0.0 0.0 0.0 0.0 0.0 0.0 0.0 0.0 0.0 0.0 0.0 0.0 0.0 0.0 0.0 0.0 0.0 0.0 0.0 0.0 0.0 0.0 0.0 0.0 0.0 0.0 0.0 0.0 0.0 0.0 0.0 0.0 0.0 0.0 0.0 0.0 0.0 0.0 0.0 0.0
0.0 0.0 0.0 0.0 0.0 0.0 0.0 0.0 0.1 0.2 0.5 0.1 0.0 0.0 0.0 0.0 0.0 0.0 0.0 0.0 0.0 0.0 0.0 0.0 0.0 0.0 0.0 0.0 0.0 0.0 0.0 0.0 0.0 0.0 0.0 0.0 0.0 0.0 0.0 0.0 0.0 0.0 0.0 0.0
0.0 0.0 0.0 0.0 0.0 0.0 0.0 0.0 0.1 0.9 0.7 0.1 0.0 0.1 0.0 0.0 0.0 0.0 0.0 0.0 0.0 0.0 0.0 0.0 0.0 0.0 0.0 0.0 0.0 0.0 0.0 0.0 0.0 0.0 0.0 0.0 0.0 0.0 0.0 0.0 0.0 0.0 0.0 0.0
0.0 0.0 0.0 0.0 0.0 0.0 0.0 0.0 0.0 0.0 1.9 0.8 0.0 0.0 0.0 0.0 0.0 0.0 0.0 0.0 0.0 0.0 0.0 0.0 0.0 0.0 0.0 0.0 0.0 0.0 0.0 0.0 0.0 0.0 0.0 0.0 0.0 0.0 0.0 0.0 0.0 0.0 0.0 0.0
0.0 0.0 0.0 0.0 0.0 0.0 0.0 0.0 0.1 0.2 2.4 1.5 0.0 0.0 0.0 0.0 0.0 0.0 0.0 0.0 0.0 0.0 0.0 0.0 0.0 0.0 0.0 0.0 0.0 0.0 0.0 0.0 0.0 0.0 0.0 0.0 0.0 0.0 0.0 0.0 0.0 0.0 0.0 0.0
0.0 0.0 0.1 0.0 0.0 0.0 0.0 0.0 0.0 0.0 0.1 0.8 0.8 0.0 0.0 0.0 0.0 0.0 0.0 0.0 0.0 0.0 0.0 0.0 0.0 0.0 0.0 0.0 0.0 0.0 0.0 0.0 0.0 0.0 0.0 0.0 0.0 0.0 0.0 0.0 0.0 0.0 0.0 0.0
0.0 0.0 1.3 0.0 0.0 0.0 0.0 0.0 0.0 0.3 0.1 0.2 0.5 0.4 0.0 0.0 0.0 0.0 0.0 0.0 0.0 0.0 0.0 0.0 0.0 0.0 0.0 0.0 0.0 0.0 0.0 0.0 0.0 0.0 0.0 0.0 0.0 0.0 0.0 0.0 0.0 0.0 0.0 0.0
0.0 2.0 6.1 2.1 0.4 0.0 0.0 0.0 0.0 0.0 0.1 1.3 2.9 0.4 0.0 0.0 0.0 0.0 0.0 0.0 0.0 0.0 0.0 0.0 0.0 0.0 0.0 0.0 0.0 0.0 0.0 0.0 0.0 0.0 0.0 0.0 0.0 0.0 0.0 0.0 0.0 0.0 0.0 0.0
nan 0.7 1.3 1.7 0.2 0.0 0.1 0.0 0.0 0.0 4.1 0.6 0.4 0.0 0.0 0.0 0.0 0.0 0.0 0.0 0.0 0.0 0.0 0.0 0.0 0.0 0.0 0.0 0.0 0.0 0.0 0.0 0.0 0.0 0.0 0.0 0.0 0.0 0.0 0.0 0.0 0.0 0.0 0.0
0.0 5.4 0.1 0.0 0.1 0.2 0.2 0.3 0.1 0.3 0.0 0.7 0.0 0.0 0.0 0.0 0.0 0.0 0.0 0.0 0.0 0.0 0.0 0.0 0.0 0.0 0.0 0.0 0.0 0.0 0.0 0.0 0.0 0.0 0.0 0.0 0.0 0.0 0.0 0.0 0.0 0.0 0.1 0.1
0.0 5.6 0.3 2.9 0.1 0.1 1.7 0.0 0.0 0.0 0.0 0.0 0.0 0.0 0.0 0.0 0.0 0.0 0.0 0.0 0.0 0.0 0.0 0.0 0.0 0.0 0.0 0.0 0.0 0.0 0.0 0.0 0.0 0.0 0.0 0.0 0.0 0.0 0.0 0.1 0.1 0.1 0.2 0.2
0.5 3.4 8.5 16.0 0.2 0.7 13.4 0.1 0.0 0.0 0.0 0.0 0.2 0.0 0.0 0.0 0.0 0.0 0.0 0.0 0.0 0.0 0.0 0.0 0.0 0.0 0.0 0.0 0.0 0.0 0.0 0.0 0.0 0.0 0.0 0.0 0.0 0.1 0.1 0.1 0.2 0.3 0.4 0.4
1.7 5.1 7.9 23.5 10.0 49.7 1.9 0.0 0.0 0.0 0.0 0.0 0.0 0.0 0.0 0.0 0.0 0.0 0.0 0.0 0.0 0.0 0.0 0.0 0.0 0.0 0.0 0.0 0.0 0.0 0.0 0.0 0.0 0.1 0.2 0.1 0.1 0.3 0.3 0.5 0.7 0.8 0.7 0.9
0.0 0.8 18.2 37.8 19.0 1.6 0.1 0.0 0.0 0.1 0.1 0.0 0.0 0.0 0.0 0.0 0.0 0.0 0.0 0.0 0.0 0.0 0.0 0.0 0.0 0.0 0.0 0.0 0.0 0.0 0.0 0.1 0.1 0.1 0.2 0.2 0.9 2.6 1.7 3.5 1.8 1.3 1.6 1.2
0.4 0.3 2.9 29.2 33.9 28.8 0.6 0.1 0.1 0.1 1.8 0.2 0.0 0.0 0.0 0.0 0.4 0.0 0.0 0.0 0.0 0.0 0.0 0.0 0.0 0.0 0.0 0.0 0.0 0.0 0.0 0.1 0.2 0.2 0.2 0.4 1.5 3.8 3.2 1.7 2.4 2.1 1.9 1.8
7.6 13.4 22.2 16.1 22.7 9.1 0.2 0.1 0.0 3.7 0.9 0.1 0.1 0.1 0.2 0.5 0.1 0.0 0.0 0.0 0.0 0.0 0.0 0.0 0.0 0.0 0.0 0.0 0.1 0.1 0.0 0.1 0.1 0.2 0.8 1.4 1.1 3.3 1.9 2.3 1.6 2.8 3.1 1.8
3.3 11.3 23.5 17.7 25.1 31.6 0.1 0.0 0.2 0.4 0.0 0.1 0.1 0.0 0.0 0.0 0.0 0.0 0.0 0.0 0.0 0.0 0.0 0.0 0.0 0.0 0.1 0.1 0.2 0.1 0.1 0.0 0.2 0.5 1.1 2.4 3.6 3.1 3.0 6.1 3.1 4.3 3.8 3.9
5.1 0.8 4.5 1.6 3.7 0.1 0.2 0.2 0.0 0.0 0.1 0.1 0.0 0.0 0.0 0.0 0.0 0.0 0.0 0.0 0.0 0.0 0.0 0.1 0.1 0.1 0.1 0.2 0.4 1.3 0.2 0.2 0.7 3.2 4.5 5.0 4.6 4.4 4.9 7.0 4.0 4.7 3.9 4.7
0.3 0.1 1.6 1.7 0.1 0.1 0.0 0.0 0.0 0.0 0.0 0.0 0.0 0.0 0.1 0.0 0.0 0.2 0.1 0.1 0.1 0.1 0.1 0.3 0.5 0.6 0.4 0.6 0.7 0.8 0.7 1.0 6.5 6.8 4.2 3.6 4.6 3.3 4.2 4.9 5.2 7.0 5.1 5.2
0.3 0.1 0.7 1.1 0.0 0.0 0.0 0.0 0.0 0.0 0.1 0.1 0.1 0.1 0.0 0.1 0.4 0.2 0.3 0.2 0.1 0.2 0.4 0.5 0.8 0.7 1.0 1.0 1.0 1.6 1.9 3.3 4.3 4.4 2.7 3.9 5.3 6.0 4.1 3.5 7.2 6.0 3.7 8.0
0.0 0.0 0.2 1.1 0.0 0.0 0.0 0.0 0.0 0.0 0.0 0.0 0.1 0.2 0.1 0.2 0.1 0.3 0.3 0.2 0.3 0.8 1.0 1.2 1.4 1.7 1.7 2.1 2.3 3.3 5.3 5.1 5.3 3.2 4.1 4.1 4.1 3.7 3.7 4.1 4.4 nan nan nan
Water_Equivalent
0.00 0.00 0.00 0.00 0.00 0.00 0.00 0.00 0.00 0.00 0.00 0.00 0.00 0.00 0.00 0.00 0.00 0.00 0.00 0.00 0.00 0.00 0.00 0.00 0.00 0.00 0.00 0.00 0.00 0.00 0.00 0.00 0.00 0.00 0.00 0.00 0.00 0.00 0.00 0.00 0.00 0.00 0.00 0.00
0.00 0.00 0.00 0.00 0.00 0.00 0.00 0.00 0.00 0.00 0.00 0.00 0.00 0.00 0.00 0.00 0.00 0.00 0.00 0.00 0.00 0.00 0.00 0.00 0.00 0.00 0.00 0.00 0.00 0.00 0.00 0.00 0.00 0.00 0.00 0.00 0.00 0.00 0.00 0.00 0.00 0.00 0.00 0.00
0.00 0.00 0.00 0.00 0.00 0.00 0.00 0.00 0.00 0.00 0.00 0.00 0.00 0.00 0.00 0.00 0.00 0.00 0.00 0.00 0.00 0.00 0.00 0.00 0.00 0.00 0.00 0.00 0.00 0.00 0.00 0.00 0.00 0.00 0.00 0.00 0.00 0.00 0.00 0.00 0.00 0.00 0.00 0.00
0.00 0.00 0.00 0.00 0.00 0.00 0.00 0.00 0.00 0.00 0.00 0.00 0.00 0.00 0.00 0.00 0.00 0.00 0.00 0.00 0.00 0.00 0.00 0.00 0.00 0.00 0.00 0.00 0.00 0.00 0.00 0.00 0.00 0.00 0.00 0.00 0.00 0.00 0.00 0.00 0.00 0.00 0.00 0.00
0.00 0.00 0.00 0.00 0.00 0.00 0.00 0.00 0.00 0.00 0.00 0.00 0.00 0.00 0.00 0.00 0.00 0.00 0.00 0.00 0.00 0.00 0.00 0.00 0.00 0.00 0.00 0.00 0.00 0.00 0.00 0.00 0.00 0.00 0.00 0.00 0.00 0.00 0.00 0.00 0.00 0.00 0.00 0.00
0.00 0.00 0.00 0.00 0.00 0.00 0.00 0.00 0.00 0.00 0.00 0.01 0.00 0.00 0.00 0.00 0.00 0.00 0.00 0.00 0.00 0.00 0.00 0.00 0.00 0.00 0.00 0.00 0.00 0.00 0.00 0.00 0.00 0.00 0.00 0.00 0.00 0.00 0.00 0.00 0.00 0.00 0.00 0.00
0.00 0.00 0.00 0.00 0.00 0.00 0.00 0.00 0.03 0.05 0.14 0.04 0.00 0.00 0.00 0.00 0.00 0.00 0.00 0.00 0.00 0.00 0.00 0.00 0.00 0.00 0.00 0.00 0.00 0.00 0.00 0.00 0.00 0.00 0.00 0.00 0.00 0.00 0.00 0.00 0.00 0.00 0.00 0.00
0.00 0.00 0.00 0.00 0.00 0.00 0.00 0.00 0.04 0.20 0.17 0.03 0.00 0.02 0.00 0.00 0.00 0.00 0.00 0.00 0.00 0.00 0.00 0.00 0.00 0.00 0.00 0.00 0.00 0.00 0.00 0.00 0.00 0.00 0.00 0.00 0.00 0.00 0.00 0.00 0.00 0.00 0.00 0.00
0.00 0.00 0.00 0.00 0.00 0.00 0.00 0.00 0.00 0.01 0.38 0.23 0.00 0.00 0.00 0.00 0.00 0.00 0.00 0.00 0.00 0.00 0.00 0.00 0.00 0.00 0.00 0.00 0.00 0.00 0.00 0.00 0.00 0.00 0.00 0.00 0.00 0.00 0.00 0.00 0.00 0.00 0.00 0.00
0.00 0.00 0.00 0.00 0.00 0.00 0.00 0.00 0.03 0.06 0.47 0.26 0.00 0.00 0.00 0.00 0.00 0.00 0.00 0.00 0.00 0.00 0.00 0.00 0.00 0.00 0.00 0.00 0.00 0.00 0.00 0.00 0.00 0.00 0.00 0.00 0.00 0.00 0.00 0.00 0.00 0.00 0.00 0.00
0.00 0.00 0.02 0.00 0.00 0.00 0.00 0.00 0.00 0.00 0.03 0.19 0.19 0.01 0.00 0.00 0.00 0.00 0.00 0.00 0.00 0.00 0.00 0.00 0.00 0.00 0.00 0.00 0.00 0.00 0.00 0.00 0.00 0.00 0.00 0.00 0.00 0.00 0.00 0.00 0.00 0.00 0.00 0.00
0.00 0.00 0.35 0.01 0.00 0.00 0.00 0.00 0.00 0.10 0.03 0.06 0.14 0.08 0.00 0.00 0.00 0.00 0.00 0.00 0.00 0.00 0.00 0.00 0.00 0.00 0.00 0.00 0.00 0.00 0.00 0.00 0.00 0.00 0.00 0.00 0.00 0.00 0.00 0.00 0.00 0.00 0.00 0.00
0.00 0.57 1.39 0.51 0.09 0.00 0.00 0.00 0.00 0.00 0.05 0.30 0.63 0.08 0.00 0.00 0.00 0.00 0.00 0.00 0.00 0.00 0.00 0.00 0.00 0.00 0.00 0.00 0.00 0.00 0.00 0.00 0.00 0.00 0.00 0.00 0.00 0.00 0.00 0.00 0.00 0.00 0.00 0.00
nan 0.25 0.37 0.42 0.04 0.00 0.04 0.01 0.00 0.00 0.95 0.16 0.11 0.01 0.00 0.00 0.00 0.00 0.00 0.00 0.00 0.00 0.00 0.00 0.00 0.00 0.00 0.00 0.00 0.00 0.00 0.00 0.00 0.00 0.00 0.00 0.00 0.00 0.00 0.00 0.00 0.00 0.00 0.01
0.00 1.62 0.05 0.02 0.04 0.06 0.06 0.07 0.02 0.08 0.00 0.15 0.00 0.00 0.00 0.00 0.00 0.00 0.00 0.00 0.00 0.00 0.00 0.00 0.00 0.00 0.00 0.00 0.00 0.00 0.00 0.00 0.00 0.00 0.00 0.00 0.00 0.00 0.00 0.01 0.01 0.01 0.03 0.02
0.01 1.73 0.10 0.80 0.02 0.03 0.37 0.00 0.00 0.00 0.00 0.00 0.00 0.00 0.00 0.00 0.00 0.00 0.00 0.00 0.00 0.00 0.00 0.00 0.00 0.00 0.00 0.00 0.00 0.00 0.00 0.00 0.00 0.00 0.00 0.00 0.00 0.01 0.01 0.02 0.03 0.04 0.04 0.04
0.20 1.20 2.35 3.23 0.05 0.17 2.12 0.03 0.00 0.00 0.00 0.00 0.05 0.00 0.00 0.00 0.00 0.00 0.00 0.00 0.00 0.00 0.00 0.00 0.00 0.00 0.00 0.00 0.00 0.00 0.00 0.00 0.00 0.00 0.01 0.01 0.01 0.02 0.02 0.03 0.04 0.06 0.07 0.08
0.69 1.82 2.47 4.83 2.15 6.47 0.39 0.00 0.00 0.00 0.00 0.00 0.00 0.00 0.00 0.00 0.00 0.00 0.00 0.00 0.00 0.00 0.00 0.00 0.00 0.00 0.00 0.00 0.00 0.00 0.00 0.00 0.01 0.02 0.04 0.02 0.03 0.06 0.05 0.09 0.11 0.12 0.11 0.14
0.01 0.24 3.19 5.97 3.02 0.33 0.01 0.01 0.00 0.02 0.03 0.00 0.00 0.00 0.00 0.00 0.00 0.00 0.00 0.00 0.00 0.00 0.00 0.00 0.00 0.00 0.00 0.00 0.00 0.00 0.01 0.01 0.02 0.03 0.04 0.04 0.16 0.39 0.27 0.54 0.27 0.20 0.25 0.20
0.11 0.11 0.92 5.33 5.45 3.68 0.11 0.04 0.02 0.03 0.35 0.05 0.01 0.00 0.01 0.01 0.10 0.00 0.00 0.00 0.00 0.00 0.00 0.00 0.00 0.00 0.00 0.00 0.00 0.01 0.01 0.02 0.03 0.03 0.04 0.09 0.26 0.53 0.44 0.25 0.34 0.34 0.31 0.28
1.36 2.46 3.27 2.72 3.68 1.67 0.06 0.02 0.00 0.57 0.16 0.03 0.02 0.02 0.04 0.16 0.04 0.00 0.00 0.00 0.00 0.00 0.00 0.00 0.00 0.00 0.00 0.01 0.02 0.01 0.01 0.02 0.01 0.03 0.15 0.22 0.18 0.45 0.27 0.34 0.27 0.40 0.45 0.25
0.46 1.49 3.23 2.73 3.80 4.11 0.03 0.01 0.04 0.09 0.01 0.02 0.02 0.00 0.01 0.00 0.00 0.00 0.00 0.00 0.00 0.00 0.00 0.00 0.01 0.01 0.01 0.02 0.03 0.02 0.02 0.01 0.03 0.08 0.15 0.31 0.49 0.43 0.45 0.89 0.47 0.67 0.58 0.58
0.72 0.15 0.77 0.31 0.72 0.04 0.05 0.06 0.01 0.00 0.02 0.02 0.01 0.00 0.00 0.00 0.00 0.00 0.00 0.00 0.00 0.00 0.00 0.01 0.02 0.02 0.01 0.02 0.06 0.14 0.02 0.03 0.09 0.47 0.71 0.71 0.64 0.62 0.65 1.02 0.57 0.78 0.65 0.80
0.08 0.03 0.33 0.30 0.02 0.02 0.00 0.00 0.00 0.00 0.00 0.00 0.00 0.01 0.02 0.01 0.01 0.04 0.03 0.01 0.01 0.01 0.02 0.04 0.07 0.08 0.05 0.07 0.08 0.09 0.08 0.12 1.11 1.05 0.54 0.43 0.57 0.44 0.54 0.74 0.85 1.20 0.87 0.83
0.07 0.04 0.19 0.24 0.01 0.00 0.00 0.00 0.00 0.01 0.02 0.03 0.02 0.02 0.01 0.01 0.07 0.04 0.06 0.05 0.02 0.03 0.04 0.06 0.09 0.07 0.09 0.08 0.09 0.15 0.17 0.36 0.60 0.65 0.31 0.49 0.76 0.87 0.53 0.44 0.81 0.73 0.48 1.08
0.00 0.01 0.04 0.19 0.00 0.00 0.00 0.00 0.00 0.01 0.01 0.01 0.02 0.04 0.03 0.03 0.03 0.05 0.04 0.03 0.04 0.08 0.09 0.12 0.13 0.14 0.12 0.16 0.19 0.27 0.57 0.58 0.62 0.36 0.53 0.54 0.54 0.51 0.49 0.51 0.50 nan nan nan
SL_Ratio
nan nan nan nan nan nan nan nan nan nan nan nan nan nan nan nan nan nan nan nan nan nan nan nan nan nan nan nan nan nan nan nan nan nan nan nan nan nan nan nan nan nan nan nan
nan nan nan nan nan nan nan nan nan nan nan nan nan nan nan nan nan nan nan nan nan nan nan nan nan nan nan nan nan nan nan nan nan nan nan nan nan nan nan nan nan nan nan nan
nan nan nan nan nan nan nan nan nan nan nan nan nan nan nan nan nan nan nan nan nan nan nan nan nan nan nan nan nan nan nan nan nan nan nan nan nan nan nan nan nan nan nan nan
nan nan nan nan nan nan nan nan nan nan nan nan nan nan nan nan nan nan nan nan nan nan nan nan nan nan nan nan nan nan nan nan nan nan nan nan nan nan nan nan nan nan nan nan
nan nan nan nan nan nan nan nan nan nan nan nan nan nan nan nan nan nan nan nan nan nan nan nan nan nan nan nan nan nan nan nan nan nan nan nan nan nan nan nan nan nan nan nan
nan nan nan nan nan nan nan nan nan nan nan 3.3 nan nan nan nan nan nan nan nan nan nan nan nan nan nan nan nan nan nan nan nan nan nan nan nan nan nan nan nan nan nan nan nan
nan nan nan nan nan nan nan nan 3.5 3.3 3.6 3.3 nan nan nan nan nan nan nan nan nan nan nan nan nan nan nan nan nan nan nan nan nan nan nan nan nan nan nan nan nan nan nan nan
nan nan nan nan nan nan nan nan 3.1 4.8 3.8 3.1 nan 3.4 nan nan nan nan nan nan nan nan nan nan nan nan nan nan nan nan nan nan nan nan nan nan nan nan nan nan nan nan nan nan
nan nan nan nan nan nan nan nan nan 4.1 5.1 3.7 nan nan nan nan nan nan nan nan nan nan nan nan nan nan nan nan nan nan nan nan nan nan nan nan nan nan nan nan nan nan nan nan
nan 5.0 nan nan nan nan nan nan 3.5 3.6 5.1 5.6 nan nan nan nan nan nan nan nan nan nan nan nan nan nan nan nan nan nan nan nan nan nan nan nan nan nan nan nan nan nan nan nan
nan 5.5 5.6 nan nan nan nan nan nan nan 3.2 4.1 4.3 3.8 nan nan nan nan nan nan nan nan nan nan nan nan nan nan nan nan nan nan nan nan nan nan nan nan nan nan nan nan nan nan
nan 0.0 3.6 5.3 nan nan nan nan nan 3.4 4.4 3.4 3.5 4.6 nan nan nan nan nan nan nan nan nan nan nan nan nan nan nan nan nan nan nan nan nan nan nan nan nan nan nan nan nan nan
nan 3.5 4.4 4.2 4.8 nan 0.0 nan nan nan 2.7 4.4 4.6 4.5 nan nan nan nan nan nan nan nan nan nan nan nan nan nan nan nan nan nan nan nan nan nan nan nan nan nan nan nan nan nan
nan 2.9 3.6 4.0 4.2 nan 3.7 2.9 nan nan 4.4 3.6 3.6 2.4 nan nan nan nan nan nan nan nan nan nan nan nan nan nan nan nan nan nan nan nan nan nan nan nan nan nan nan 5.0 2.5 2.8
nan 3.3 3.3 3.0 3.6 3.7 4.2 4.2 3.4 3.8 3.1 4.9 nan nan nan nan nan nan nan nan nan nan nan nan nan nan nan nan nan nan nan nan nan nan nan nan nan nan nan 2.6 2.6 2.4 2.6 3.2
2.4 3.2 2.9 3.6 3.0 3.3 4.5 nan nan nan nan 0.0 nan nan nan nan nan nan nan nan nan nan nan nan nan nan nan nan nan nan nan nan nan nan nan nan 0.0 2.6 2.3 2.7 3.3 3.7 4.5 4.7
2.5 2.8 3.6 4.9 3.6 4.1 6.3 3.0 nan nan nan nan 3.4 nan nan nan nan nan nan nan nan nan nan nan nan nan nan nan nan nan nan nan nan 2.7 2.8 3.0 3.1 3.6 3.4 4.0 4.6 5.0 5.3 5.6
2.5 2.8 3.2 4.9 4.6 7.7 4.8 nan nan nan nan nan nan nan nan nan nan nan nan nan nan nan nan nan nan nan nan nan nan nan nan nan 2.9 3.4 3.8 3.8 4.1 4.9 5.0 5.6 5.9 6.2 6.2 6.2
2.7 3.2 5.7 6.3 6.3 4.8 3.6 4.4 4.5 3.9 4.4 nan nan nan nan nan nan nan nan nan nan nan nan nan nan nan nan nan nan 2.9 3.7 3.9 4.0 4.4 4.7 4.8 5.3 6.5 6.6 6.5 6.5 6.6 6.3 6.4
3.2 3.0 3.1 5.5 6.2 7.8 5.4 3.9 3.3 2.7 5.1 3.7 2.4 3.3 2.9 3.2 3.8 nan nan nan nan nan nan nan nan nan nan nan 5.0 3.7 4.5 4.5 4.8 4.9 5.0 5.2 6.0 7.2 7.4 6.7 7.0 6.3 6.1 6.4
5.6 5.4 6.8 5.9 6.2 5.4 3.5 3.4 nan 6.5 5.6 4.0 3.0 3.0 3.7 3.5 2.7 0.0 nan nan nan nan nan nan nan nan nan 4.1 4.3 5.1 5.0 5.4 5.3 5.4 5.7 6.5 6.4 7.4 7.1 6.8 6.1 7.1 6.8 7.3
7.1 7.5 7.3 6.5 6.6 7.7 3.7 3.5 5.5 4.4 3.8 3.1 3.6 nan 3.1 nan nan nan nan nan nan nan nan 3.3 4.8 4.8 5.2 5.2 6.1 5.8 5.6 6.0 6.4 6.3 7.4 7.6 7.4 7.3 6.7 6.8 6.6 6.4 6.6 6.7
7.1 5.2 5.9 5.3 5.1 3.3 3.4 3.7 3.0 2.7 3.2 3.7 3.3 3.3 nan 4.0 2.5 0.0 nan nan nan nan 4.5 4.9 5.5 5.9 5.9 6.5 7.0 9.0 7.2 7.8 8.0 6.8 6.3 7.0 7.2 7.1 7.5 6.9 7.1 6.0 6.0 5.9
4.5 3.1 4.7 5.7 4.0 3.8 3.3 nan nan 3.3 5.0 nan 3.1 3.1 3.8 4.2 4.7 4.4 4.4 4.5 5.0 4.9 5.8 7.1 7.4 7.4 8.5 8.4 8.9 9.0 9.3 8.4 5.9 6.4 7.8 8.2 7.9 7.5 7.8 6.6 6.2 5.8 5.9 6.3
3.6 2.9 3.8 4.5 3.4 nan nan nan nan 3.0 3.5 3.8 3.9 3.9 4.0 4.5 5.5 4.8 5.7 5.3 5.8 7.3 8.8 8.6 9.3 10.6 10.9 11.3 11.3 10.3 11.1 9.0 7.2 6.8 8.9 7.9 7.0 6.9 7.8 8.0 8.9 8.3 7.7 7.4
10.0 5.0 5.0 6.0 nan nan nan nan 2.7 3.2 4.4 3.3 4.4 5.2 4.8 4.4 5.3 6.4 6.4 5.9 7.5 9.7 10.4 10.8 10.6 12.0 14.0 13.2 12.5 12.1 9.3 8.9 8.5 9.0 7.7 7.6 7.6 7.2 7.7 8.2 8.8 nan nan nan